User: anonymous   Login
Location: Newark
(34.1333°N, 7.9667°W)
Time: 08:33:21
(UTC+00:00)
Language:

Transit 4A - Orbit

View from above orbital plane
View from above orbital plane
View from above satellite
View from above satellite

Ground track
Ground track

The orbit data is extracted from the following two-line orbital elements,

1 00116U 61015A   21332.79533224 -.00000056  00000-0  15727-4 0  9995
2 00116  66.8106 354.1550 0076149 352.8138   7.1842 13.91803087 65460
Epoch (UTC): 28 November 2021 19:05:16
Eccentricity: 0.0076149
inclination: 66.8106°
perigee height: 867 km
apogee height: 978 km
right ascension of ascending node: 354.1550°
argument of perigee: 352.8138°
revolutions per day: 13.91803087
mean anomaly at epoch: 7.1842°
orbit number at epoch: 6546

The dashed part of the orbit path shows where the satellite is in the earth's shadow,  

DLR